www.pogodaiklimat.ru

Погода и климат >> Архив погоды >> Кувейт >> Bubiyan


ПОГОДА в Bubiyan

  • Прогноз погоды в Bubiyan
  • Монитор погоды в Bubiyan
  • Климат города

АРХИВ ПОГОДЫ в Bubiyan

Время (UTC), дата Ветер
(напр.,м/с)
 
Видим.   Явления Облачность Т
(С)
Тd
(С)
f
(%)
Тe
(С)
Тes
(С)
Комфортность P
(гПа)
Po
(гПа)
Тmin
(С)
Tmax
(С)
R
(мм)
R24
(мм)
S
(см)
00 12.12 З 5-7
{7}
н/о н/о +6.8 -0.5 60 +3 +3 1022.3 1022.0
03 12.12 З 5-7
{8}
н/о н/о +6.4 -0.7 60 +3 +3 1022.1 1022.0
06 12.12 З 11-13
{13}
н/о н/о +13.0 +0.4 42 +10 +10 1022.8 1023.0
09 12.12 СЗ 11-15
{16}
н/о н/о +19.7 -2.9 22 +19 +19 1021.0 1021.0
12 12.12 СЗ 9-13
{16}
н/о н/о +21.0 +0.1 25 +21 +21 комфорт 1019.6 1020.0
15 12.12 З 5-7
{13}
н/о н/о +14.8 +0.4 37 +14 +14 1020.2 1020.0
18 12.12 З 4-5
{13}
н/о н/о +9.5 -0.7 49 +7 +7 1021.3 1021.0
21 12.12 З 5-6
{6}
н/о н/о +7.8 +0.4 59 +5 +5 1020.8 1021.0 +5.6 +21.6
00 13.12 З 5-6
{6}
н/о н/о +6.5 -1.0 59 +3 +3 1020.6 1021.0
03 13.12 З 4-5
{7}
н/о н/о +5.2 -1.3 63 +1 +1 1020.7 1021.0
06 13.12 СЗ 5-7
{7}
н/о н/о +11.3 +1.0 49 +9 +9 1021.5 1022.0
09 13.12 З 4-6
{7}
н/о н/о +17.2 +1.3 34 +17 +17 1019.3 1019.0
12 13.12 С 3-4
{8}
н/о н/о +17.6 +8.2 54 +18 +18 1017.5 1018.0
15 13.12 Ю 1-2
{6}
н/о н/о +13.1 +8.4 73 +13 +13 1017.8 1018.0
18 13.12 ЮВ 1-1
{6}
н/о н/о +12.9 +11.1 89 +13 +13 1018.3 1018.0
21 13.12 Ю 1-2
{4}
н/о н/о +10.2 +8.9 92 +10 +10 1017.3 1017.0 +4.7 +19.3
00 14.12 ЮЗ 3-3
{4}
н/о н/о +5.8 +1.9 76 +3 +3 1016.7 1017.0
03 14.12 СЗ 1-1
{3}
н/о н/о +6.4 +3.5 82 +5 +5 1017.5 1018.0
06 14.12 ЮВ 1-1
{3}
н/о н/о +14.7 +7.0 60 +16 +16 1018.8 1019.0
12 14.12 В 4-5
{5}
н/о н/о +17.2 +13.7 80 +17 +17 1015.4 1015.0
15 14.12 В 3-4
{6}
н/о н/о +14.9 +13.6 92 +14 +14 1016.1 1016.0
18 14.12 С 3-5
{7}
н/о н/о +14.8 +12.5 86 +14 +14 1014.8 1015.0
21 14.12 ЮВ 2-3
{5}
н/о н/о +15.0 +12.5 85 +15 +15 1014.3 1014.0 +4.9 +17.5
00 15.12 В 4-4
{5}
н/о н/о +15.2 +13.4 89 +14 +14 1013.8 1014.0
03 15.12 В 5-5
{5}
н/о н/о +14.8 +13.1 90 +13 +13 1013.3 1013.0
06 15.12 Ю 7-9
{11}
н/о н/о +15.4 +7.9 61 +14 +14 1014.3 1014.0
09 15.12 ЮЗ 8-10
{10}
н/о н/о +16.4 -2.7 27 +15 +15 1013.3 1013.0
12 15.12 ЮЗ 2-5
{11}
н/о н/о +15.9 +2.5 41 +16 +16 1013.7 1014.0
15 15.12 В 2-3
{7}
н/о н/о +13.7 +9.4 75 +13 +13 1014.9 1015.0
18 15.12 СВ 4-5
{7}
н/о н/о +13.9 +10.5 80 +12 +12 1016.3 1016.0
21 15.12 СВ 3-3
{7}
н/о н/о +12.3 +8.7 79 +11 +11 1016.1 1016.0 +11.8 +17.8
00 16.12 СЗ 5-6
{7}
н/о н/о +8.2 +5.0 80 +5 +5 1016.5 1017.0
03 16.12 З 5-6
{6}
н/о н/о +7.0 +4.2 82 +3 +3 1017.6 1018.0
06 16.12 СЗ 4-5
{6}
н/о н/о +13.5 +9.7 78 +12 +12 1019.9 1020.0
09 16.12 С 4-5
{7}
н/о н/о +18.4 +10.4 60 +19 +19 1018.7 1019.0
12 16.12 СВ 3-3
{7}
н/о н/о +18.6 +13.2 71 +20 +20 1018.3 1018.0
15 16.12 СВ 4-5
{6}
н/о н/о +15.9 +13.3 85 +15 +15 1020.0 1020.0
18 16.12 СВ 5-5
{6}
н/о н/о +15.0 +13.7 92 +14 +14 1021.6 1022.0
21 16.12 СВ 4-5
{6}
н/о н/о +14.1 +13.0 93 +13 +13 1021.9 1022.0 +6.3 +19.8
00 17.12 С 3-4
{6}
н/о н/о +14.0 +12.5 91 +13 +13 1022.0 1022.0
03 17.12 С 4-5
{5}
н/о н/о +11.9 +9.7 86 +10 +10 1022.9 1023.0
06 17.12 С 3-3
{8}
н/о н/о +15.7 +11.4 76 +15 +15 1024.2 1024.0
09 17.12 С 5-7
{7}
н/о н/о +22.9 +8.4 39 +24 +24 комфорт 1022.8 1023.0
12 17.12 СЗ 5-7
{11}
н/о н/о +23.9 +5.7 31 +24 +24 комфорт 1021.4 1021.0
15 17.12 СЗ 3-4
{9}
н/о н/о +17.1 +5.7 47 +17 +17 1022.5 1023.0
18 17.12 З 4-5
{9}
н/о н/о +13.5 +5.6 59 +12 +12 1023.2 1023.0
21 17.12 СЗ 4-5
{5}
н/о н/о +11.3 +5.6 68 +9 +9 1023.7 1024.0 +10.7 +24.1
00 18.12 СЗ 4-5
{6}
н/о н/о +9.5 +4.2 69 +7 +7 1024.0 1024.0
03 18.12 З 5-6
{6}
н/о н/о +8.9 +3.7 70 +6 +6 1024.8 1025.0
06 18.12 З 6-8
{8}
н/о н/о +14.4 +4.5 51 +13 +13 1026.8 1027.0
09 18.12 СЗ 6-8
{9}
н/о н/о +20.9 +2.3 29 +21 +21 комфорт 1024.9 1025.0
12 18.12 С 6-8
{9}
н/о н/о +21.8 +2.5 28 +22 +22 комфорт 1023.4 1023.0
15 18.12 СЗ 5-5
{8}
н/о н/о +15.8 +2.0 39 +15 +15 1024.5 1025.0
18 18.12 З 4-6
{8}
н/о н/о +11.6 +2.6 54 +10 +10 1025.4 1025.0
21 18.12 СЗ 4-5
{6}
н/о н/о +9.8 +2.5 60 +7 +7 1025.0 1025.0 +8.0 +22.6

 

Местоположение метеостанции Bubiyan (Кувейт): широта 29.77 долгота 48.38 высота над уровнем моря 6 м.

В архиве по умолчанию представлена погода в Bubiyan за последнюю неделю. Архивные данные за месяц целиком и за предыдущие месяцы, начиная с января 2011 года, Вы можете получить, выбрав интересующий диапазон дат из раскрывающегося списка и нажав кнопку "Ввод!".

Внимание! Время в таблицах - всемирное. Для получения местного времени необходимо прибавить поправку, которая в Bubiyan равна 3 ч.

Смотрите также архив погоды в соседних городах и на ближайших метеорологических станциях:

Погода в Fao (Ирак) (26 км)
Погода в Failaka Island (Кувейт) (35 км)
Погода в Sabriyah (Кувейт) (51 км)
Погода в Al-Shuaiba (Кувейт) (54 км)
Погода в Kuwait City (Кувейт) (58 км)
Погода в Abadan (Иран) (68 км)
Погода в Experimental Farm (Кувейт) (68 км)
Погода в Kuwait (Кувейт) (73 км)
Погода в Abdaly (Кувейт) (74 км)
Погода в Jal Aliyah (Кувейт) (79 км)

Пояснения к столбцам:

Ветер - указаны скорость ветра в м/с - средняя за 10 мин, порывы в срок и между сроками (в фигурных скобках) и направление, откуда дует ветер: С - северный, СВ - северо-восточный, В - восточный, ЮВ - юго-восточный, Ю - южный, ЮЗ - юго-западный, З - западный, СЗ - северо-западный.
Видимость - горизонтальная дальность видимости в метрах или километрах. При видимости от 1 до 10 км при отсутствии осадков обычно наблюдается дымка, при ухудшении видимости до 1 км и менее - туман. В сухую погоду видимость может ухудшаться дымом, пылью или мглою.
Явления - указаны атмосферные явления, наблюдавшиеся в срок или в последний час перед сроком; фигурными скобками обозначены явления, наблюдавшиеся между сроками (за 1-3 часа до срока); квадратными скобками обозначены град или гололедные отложения с указанием их диаметра в мм.
Облачность - указаны через наклонную черту общая и нижняя облачность в баллах и высота нижней границы облаков в метрах; квадратными скобками обозначены формы облаков: Ci - перистые, Cs - перисто-слоистые, Cc - перисто-кучевые, Ac - высококучевые, As - высокослоистые, Sc - слоисто-кучевые, Ns - слоисто-дождевые, Cu - кучевые, Cb - кучево-дождевые. Подробнее классификацию облаков см. в Атласе облаков (PDF).
T - Температура воздуха - температура, измеренная на высоте 2 м над землей.
Td - Температура точки росы - температура, при понижении до которой содержащийся в воздухе водяной пар достигнет насыщения.
f - Относительная влажность воздуха - влажноcть воздуха, измеренная на высоте 2 м над землей.
Te - Эффективная температура - температура, которую ощущает одетый по сезону человек в тени. Характеристика душности погоды. При расчете учитывается влияние влажности воздуха и скорости ветра на теплоощущения человека.
Tes - Эффективная температура на солнце - температура, которую ощущает человек, с поправкой на солнечный нагрев. Характеристика знойности погоды. Зависит от высоты солнца над горизонтом, облачности и скорости ветра. Ночью, в пасмурную погоду, а также при ветре 12 м/с и более поправка равна нулю.
P - Атмосферное давление - приведенное к уровню моря атмосферное давление.
Po - Атмосферное давление - измеренное на уровне метеостанции атмосферное давление.
Tmin - Минимальная температура - минимум температуры воздуха на высоте 2 м над землей.
Tmax - Максимальная температура - максимум температуры воздуха на высоте 2 м над землей.
R - Количество осадков - Количество выпавших осадков за период времени, мм. При наведении курсора мыши на число - период времени, за который выпало указанное количество осадков.
R24 - Количество осадков - Количество выпавших осадков за 24 часа, мм.
S - Снежный покров - Высота снежного покрова, см. При наведении курсора мыши на число - состояние снежного покрова и степень покрытия местности в баллах.